Helicity
30 21 36 17 26 36 48 47 52 58 52 61 56 74 48 45 8 20 35 59 47 44 41 21 15 23 19 31 16 24 28 40 24 26 89 145 165 106 122 170 85 109 115 104 52 174 12
67 47 58 36 37 54 49 61 65 62 57 55 52 75 52 40 4 12 29 47 48 40 35 22 11 -8 -0 11 34 26 31 13 68 -4 50 191 180 124 133 91 163 140 230 100 157 105 146
93 82 62 74 41 69 58 60 68 66 64 51 68 72 55 44 6 10 25 25 54 40 28 21 12 5 14 44 18 17 7 20 10 92 60 76 171 145 199 183 196 145 174 147 99 104 168
132 89 89 90 53 89 71 64 70 66 68 71 62 72 52 35 15 3 18 15 34 39 35 28 12 12 13 54 25 14 12 -8 1 30 132 179 79 254 284 177 133 144 125 121 89 90 131
211 139 92 81 80 105 78 64 76 77 72 82 62 64 46 28 12 10 19 13 26 38 41 33 27 21 27 33 20 15 19 19 -55 -77 39 150 116 218 244 181 177 162 136 95 68 73 158
208 184 108 87 105 108 77 66 80 78 78 85 72 61 41 16 5 13 29 33 57 33 39 35 24 31 27 17 19 -3 -3 -0 -24 1 41 108 107 264 159 182 191 135 162 60 58 88 88
175 183 131 95 107 105 73 68 84 83 89 83 77 53 36 11 5 10 51 67 103 76 40 30 63 40 3 -20 3 -27 1 7 1 57 110 144 163 207 68 124 110 108 145 37 52 80 53
174 190 164 109 109 108 68 77 86 90 88 93 74 53 30 6 -6 49 42 84 58 20 78 62 40 37 18 -8 -23 -48 11 32 115 125 96 85 143 192 138 75 138 107 141 191 158 70 59
182 197 164 115 100 96 66 83 89 90 95 91 71 50 24 6 41 52 57 65 13 -8 35 86 43 40 22 8 -17 4 32 10 108 101 132 134 98 115 177 197 136 119 83 77 53 51 45
167 183 154 131 94 88 65 86 91 90 102 88 64 50 22 35 46 68 68 52 8 -18 71 87 54 55 31 18 38 38 40 53 54 118 135 89 145 89 106 148 153 132 63 47 72 55 96
188 172 149 124 108 87 69 91 85 92 93 76 59 42 28 59 49 55 66 26 -6 8 96 91 50 22 21 20 46 34 74 101 38 76 143 29 108 139 94 85 138 83 149 99 69 49 107
204 178 158 125 108 85 66 83 79 87 81 59 42 42 76 67 35 43 35 11 10 43 97 78 29 15 34 11 53 90 90 94 41 147 86 21 83 124 169 113 127 75 115 124 91 92 54
167 189 177 127 111 81 66 76 73 89 76 53 44 87 57 43 49 37 18 39 54 38 39 55 35 12 19 -10 39 184 165 53 90 148 127 75 73 57 144 118 118 66 72 153 113 102 85
184 190 150 129 102 77 66 72 66 87 77 66 116 107 46 17 9 14 21 30 119 50 16 11 19 7 -11 -2 28 195 122 23 30 89 126 117 124 88 86 88 129 141 74 141 115 62 37
194 175 156 125 94 73 65 66 60 78 82 90 104 81 56 27 6 3 22 93 93 37 34 40 22 15 41 13 64 85 83 60 50 65 108 7 43 101 114 106 139 126 106 107 206 176 125
209 179 163 113 92 62 62 54 50 77 77 87 112 75 50 16 -2 6 43 93 29 15 27 20 21 9 34 8 73 108 92 46 62 29 71 63 54 43 40 102 106 142 78 101 153 30 44
223 186 139 111 89 55 51 41 58 69 64 74 103 84 40 12 3 31 111 83 34 11 7 -3 -11 15 7 25 37 48 51 24 -3 7 54 82 24 45 41 62 42 84 90 136 172 159 153
259 165 122 116 88 53 30 43 69 72 85 91 105 94 33 6 70 51 97 19 6 25 2 -13 -16 -11 20 36 56 47 44 30 15 63 50 48 46 36 23 64 94 108 53 36 88 53 96
292 189 125 119 82 52 -1 37 65 79 76 98 98 101 27 2 129 126 56 32 9 22 17 2 -1 -20 -10 11 10 -5 -1 17 -1 18 77 82 55 68 38 18 14 35 25 68 62 105 74
289 172 123 113 79 48 -6 26 43 58 56 69 83 91 87 51 29 62 114 74 62 -1 7 -2 -11 -5 -6 -2 5 -4 -6 18 13 29 52 82 54 85 72 82 54 48 30 26 80 117 65
253 192 140 107 63 57 -4 24 41 61 68 60 65 79 85 100 92 80 66 60 76 65 2 -0 1 -11 -1 9 8 10 16 20 9 24 32 45 73 76 102 73 63 49 35 18 67 41 52
314 224 131 107 45 65 14 26 45 79 78 47 59 74 85 87 94 107 89 88 76 45 36 25 8 -15 -3 -9 1 32 16 -3 9 16 13 24 42 44 56 43 36 42 37 23 10 -12 -2
345 220 160 85 63 48 36 50 30 99 77 43 44 46 47 72 78 90 110 94 72 42 30 14 7 6 -2 -13 25 57 55 40 45 28 27 48 47 52 62 62 51 19 16 -7 3 26 22
356 259 140 80 72 31 42 55 12 53 42 40 34 51 40 57 50 61 80 77 65 32 68 51 32 34 -18 -11 25 40 50 52 48 56 57 39 39 58 52 50 59 86 60 89 86 34 27
318 199 185 71 42 14 62 61 65 21 14 12 14 31 32 53 53 59 68 63 40 25 46 64 43 13 -5 5 -2 -12 -13 21 49 55 54 59 52 59 63 41 40 33 59 66 74 74 51
236 183 122 70 77 41 74 39 76 42 55 58 18 7 17 60 38 33 58 39 47 43 48 52 17 -1 14 32 27 9 -0 -22 -28 61 78 74 70 70 75 75 54 92 45 42 47 65 86
278 209 158 100 63 43 68 85 88 52 62 72 27 1 16 48 19 12 17 31 30 28 55 65 70 64 14 38 39 20 11 -14 -21 -39 3 63 58 52 49 72 56 72 90 68 52 116 76
307 228 143 161 127 64 68 87 92 60 81 70 49 4 5 36 23 -7 -5 8 23 43 91 67 131 83 73 83 65 37 6 -19 -7 49 75 79 84 70 68 105 59 98 97 62 112 71 59
330 210 195 116 131 50 79 85 76 71 69 57 70 19 74 25 18 -22 -16 -16 16 38 89 101 91 64 55 72 52 30 11 -0 -14 -0 67 69 83 133 111 108 104 40 17 24 46 47 40
Wind_Speed
43 45 47 48 50 50 51 53 51 51 55 54 49 48 45 42 40 36 33 36 39 40 39 38 36 34 29 26 23 41 44 47 51 55 71 61 66 72 79 88 80 91 74 74 51 50 48
39 41 44 45 46 46 46 46 48 50 53 50 48 47 44 41 39 33 31 32 33 36 36 36 35 31 29 27 40 42 43 39 34 49 58 68 55 64 73 73 80 75 67 67 57 50 51
36 35 36 40 43 44 44 43 44 46 51 47 47 47 42 38 40 32 31 29 29 30 31 31 32 30 26 31 40 39 37 35 32 43 54 54 60 62 65 64 71 67 71 68 57 53 50
29 30 29 32 38 39 41 41 43 46 48 48 48 44 40 37 36 30 32 27 30 27 26 28 30 28 27 29 39 36 35 36 34 40 50 46 52 61 76 59 58 65 66 69 68 62 48
26 23 25 26 35 35 36 38 40 44 45 46 44 41 39 36 34 29 31 27 25 25 25 28 28 30 27 28 30 35 36 38 38 39 57 50 43 45 59 72 71 70 76 73 56 57 49
24 22 22 22 32 31 34 36 38 41 43 45 42 40 37 34 31 27 28 32 33 28 28 28 27 29 27 30 37 37 36 37 42 41 49 53 48 46 59 76 86 79 71 73 58 52 48
22 19 18 20 29 28 34 34 36 39 42 41 42 38 35 31 28 26 26 31 34 34 32 41 40 32 25 18 24 34 35 39 41 39 49 44 46 55 51 70 64 68 67 62 60 42 52
22 19 19 20 26 25 32 33 32 38 41 41 38 35 33 29 26 26 25 31 32 35 41 38 34 29 22 21 28 33 32 39 47 51 50 38 45 45 55 50 46 52 51 52 45 45 50
22 19 18 19 25 25 31 32 31 37 39 38 33 33 30 28 29 28 28 30 29 30 40 47 37 37 32 25 24 35 32 35 40 45 59 43 43 37 38 50 43 46 52 47 47 42 49
21 19 17 18 24 25 31 32 31 36 39 33 29 30 26 29 31 32 32 30 31 31 45 54 45 38 33 25 18 32 36 34 39 45 51 46 40 42 41 48 51 54 46 39 30 34 50
21 18 15 16 26 25 30 31 32 37 38 30 26 24 24 25 34 33 35 33 33 33 70 47 46 32 31 33 23 27 35 39 39 38 43 35 39 48 46 45 47 51 39 39 38 46 49
25 19 16 16 25 27 30 28 33 36 38 28 22 23 31 32 30 34 36 35 34 48 69 50 44 43 39 38 27 24 35 41 37 34 28 23 26 35 39 40 35 30 36 37 41 49 62
23 19 16 15 22 27 28 25 31 36 39 31 27 32 31 32 36 34 35 34 50 60 40 50 53 48 49 51 38 29 33 34 36 39 38 34 35 37 37 40 39 35 32 32 41 49 54
25 20 16 17 20 24 26 24 31 35 37 33 37 37 34 33 34 34 32 42 61 53 49 44 49 53 52 46 37 30 33 31 31 30 28 31 34 33 33 38 39 47 37 37 47 50 50
26 21 15 16 19 22 23 24 32 35 33 29 33 35 34 34 33 31 34 52 53 47 42 44 46 52 50 43 41 34 31 30 34 38 35 28 27 43 38 33 31 39 59 38 41 37 39
29 22 16 12 17 22 22 26 32 29 26 28 31 32 34 31 30 33 40 51 47 40 38 37 41 41 54 56 43 34 32 33 32 33 28 20 24 40 43 37 35 42 33 42 43 41 47
33 25 16 12 14 22 22 27 27 25 23 31 30 34 32 31 31 35 47 48 45 38 36 38 40 44 47 49 39 32 29 34 33 32 32 28 26 28 31 41 34 35 41 44 42 43 46
36 27 21 13 12 20 25 24 23 25 29 31 28 36 29 31 36 37 41 42 41 41 36 36 36 41 38 40 40 29 30 27 25 28 33 35 27 29 34 41 44 47 51 38 48 51 54
42 30 24 11 14 18 31 21 20 23 33 27 30 34 30 30 40 37 39 40 38 39 37 35 34 33 36 36 35 28 28 29 22 32 31 32 32 30 32 43 49 53 46 45 53 49 54
39 33 24 14 12 14 33 23 20 21 31 25 29 35 33 28 24 32 37 38 39 36 37 34 33 34 34 34 24 5 25 26 24 29 35 32 32 37 35 36 38 42 48 52 42 52 55
53 36 26 17 10 8 33 24 20 17 27 23 26 30 31 30 27 30 34 36 37 37 34 34 33 29 30 30 30 28 25 23 20 27 28 31 37 40 47 42 39 45 50 53 57 73 77
46 38 29 18 10 5 28 25 18 16 25 22 26 29 29 31 32 32 33 33 33 35 35 34 32 29 28 27 25 22 22 21 20 20 28 33 35 31 42 40 45 54 56 57 61 72 79
45 37 33 22 10 6 23 14 20 26 26 24 25 27 29 30 30 30 30 33 33 34 36 35 33 31 32 27 25 31 31 32 31 29 25 33 35 38 42 41 45 57 51 66 67 58 62
48 39 34 22 12 7 20 13 24 46 41 24 24 28 29 31 29 29 32 32 33 31 34 34 32 29 28 24 19 23 27 30 30 31 33 32 30 38 49 46 57 45 41 46 52 58 59
50 41 34 24 15 10 7 11 12 44 45 27 29 26 29 33 32 32 34 34 33 31 30 30 31 29 26 28 25 23 20 10 24 33 31 33 35 41 43 45 65 69 46 47 48 57 43
48 44 34 24 16 10 6 6 16 19 30 15 28 33 28 33 30 34 34 34 33 31 30 28 28 25 27 26 23 19 18 18 16 30 33 35 37 37 37 46 47 41 36 35 39 58 32
51 48 35 26 19 13 6 1 7 18 20 17 24 33 30 33 34 34 33 32 32 30 30 29 27 26 25 22 20 17 15 18 13 13 11 31 36 34 40 48 49 45 32 35 49 47 38
54 49 37 25 21 16 9 2 5 7 12 21 20 27 29 31 36 36 35 35 33 30 29 31 28 23 24 22 22 19 16 16 13 4 13 18 37 36 41 48 59 29 30 36 40 39 43
55 51 37 26 23 17 11 6 6 12 10 18 17 28 32 32 37 36 38 37 36 34 31 30 30 30 27 25 23 22 17 15 11 6 19 12 31 48 37 40 41 32 39 37 45 48 48
Wind_Direction
345 349 353 356 356 359 1 5 11 12 11 14 15 17 16 18 16 20 23 23 22 24 27 29 31 37 44 38 353 302 292 289 253 231 227 232 228 224 225 226 228 230 236 238 241 240 237
340 344 348 353 357 360 3 7 9 10 11 14 15 17 17 18 17 19 20 24 25 26 29 32 34 39 38 35 315 291 289 284 255 224 227 229 233 230 230 228 227 232 240 235 239 243 246
334 339 346 351 355 358 1 6 8 9 9 12 14 16 17 19 20 20 20 24 27 29 31 34 34 36 38 32 316 296 287 277 248 233 228 233 240 239 227 228 227 234 229 233 235 237 244
320 332 342 350 352 359 1 5 8 8 9 11 12 16 17 19 22 22 22 27 29 32 36 36 34 34 35 39 308 300 284 265 253 245 227 231 234 235 228 228 224 224 226 227 233 234 249
309 320 335 345 349 359 1 5 8 9 10 11 13 16 17 21 24 25 25 31 37 44 46 42 36 36 45 56 348 294 289 250 242 242 226 231 242 233 221 216 218 223 224 227 232 238 245
297 310 325 337 345 356 360 4 8 8 10 10 14 17 20 23 24 32 37 41 50 54 51 47 45 46 63 52 303 283 273 248 237 237 220 216 223 220 216 212 216 218 226 227 232 237 244
292 301 316 329 342 354 357 3 8 8 10 12 15 18 22 26 29 36 52 53 47 47 49 35 38 47 69 163 85 275 259 240 232 227 212 222 223 222 211 215 223 224 229 229 236 242 245
296 293 313 323 337 352 355 3 9 8 10 13 17 21 25 28 36 53 60 46 51 54 42 50 53 65 113 154 207 244 243 231 218 214 205 211 216 219 220 216 225 216 222 230 241 250 252
285 292 304 318 333 348 353 2 10 9 11 15 20 25 31 38 55 60 58 54 68 72 48 45 60 63 92 121 225 243 233 227 215 212 203 209 223 224 217 214 212 219 222 225 237 248 250
274 287 296 313 328 344 350 0 10 11 12 19 25 29 39 55 58 61 57 70 81 80 44 41 51 69 90 113 180 245 221 219 211 211 205 220 225 220 218 214 220 220 227 226 238 240 253
264 280 289 306 321 338 349 0 9 11 14 24 30 38 53 80 60 58 63 79 81 78 30 44 51 84 91 91 185 218 211 205 203 204 213 224 224 221 221 219 224 225 234 232 243 249 263
249 270 281 300 318 333 344 3 8 12 16 29 36 56 71 74 71 66 79 83 77 44 35 49 57 65 75 81 171 206 194 193 205 209 210 214 221 225 227 230 238 234 223 240 252 256 254
245 264 275 292 315 328 343 6 10 14 16 33 52 74 83 78 63 83 85 79 46 38 62 54 56 67 75 90 150 188 185 195 206 206 208 216 225 238 235 228 237 224 212 240 251 251 253
248 260 268 287 311 326 342 8 10 17 22 43 61 79 80 75 84 87 83 60 43 53 61 70 68 70 78 110 163 192 189 191 205 208 207 223 233 224 227 230 236 227 226 249 253 253 254
236 249 259 280 305 321 343 4 3 12 33 70 86 79 78 77 87 86 72 49 50 62 72 77 78 70 80 116 168 194 202 203 203 206 225 231 240 222 228 242 241 230 235 260 261 266 261
227 234 250 266 300 310 336 350 356 27 56 102 79 76 75 87 91 84 65 54 59 77 83 84 75 83 84 104 165 198 213 214 223 226 234 252 242 227 228 238 244 243 248 253 258 259 264
220 227 236 256 292 300 324 334 5 43 83 118 81 56 77 92 90 77 57 59 68 83 91 80 82 91 93 106 171 212 232 232 236 245 251 255 259 253 245 244 246 252 255 259 267 268 265
217 217 232 244 279 290 303 331 16 58 91 100 75 44 90 95 68 73 66 69 75 78 92 92 90 89 102 115 140 235 243 261 265 259 244 248 258 253 254 252 258 258 257 264 264 264 267
223 216 223 206 266 281 280 323 14 85 129 67 57 53 98 95 62 71 73 75 78 80 88 97 94 99 105 109 126 257 267 287 277 246 252 256 259 260 266 257 258 258 266 270 267 274 265
216 209 209 215 252 272 271 304 351 102 139 86 51 44 61 83 96 81 77 78 78 84 86 97 103 103 93 85 169 5 301 306 290 275 271 267 273 271 276 277 274 271 266 265 274 271 271
226 203 204 215 220 260 266 292 336 55 113 73 51 43 60 71 90 92 87 83 83 78 86 95 105 108 115 97 65 61 316 325 310 292 292 290 282 277 270 277 280 275 273 272 268 262 259
215 196 199 210 184 246 265 281 332 64 101 13 40 48 64 68 84 93 90 88 87 82 85 87 95 110 121 116 58 50 10 336 322 301 296 294 299 306 285 285 284 280 279 278 275 267 269
197 191 201 211 174 225 264 302 303 113 108 357 15 57 69 69 87 93 93 89 89 88 80 86 97 108 104 107 27 311 301 295 301 301 304 297 299 296 291 296 297 287 284 273 274 280 280
208 203 201 199 202 194 259 296 284 151 157 351 46 66 72 65 96 98 90 94 91 88 82 85 96 103 112 105 47 345 328 312 309 305 301 305 309 300 291 297 286 300 304 297 291 286 287
203 202 201 196 200 154 253 289 323 148 165 263 98 72 54 55 84 87 94 88 87 91 86 86 92 111 121 120 119 119 130 45 320 305 306 304 301 299 297 297 278 278 299 299 296 293 305
198 203 193 199 199 202 126 276 278 272 109 330 84 154 66 65 84 84 89 88 81 81 78 83 109 123 125 122 113 117 124 136 135 319 307 303 300 301 307 300 301 310 317 319 315 296 319
204 203 197 201 204 175 153 306 317 277 279 330 48 119 88 54 83 88 77 82 80 79 71 73 83 95 122 110 103 105 130 122 132 141 44 313 303 298 299 298 302 308 317 318 300 302 320
204 200 196 189 193 197 205 254 355 334 46 305 22 57 66 48 78 81 81 77 73 77 71 66 76 87 91 93 89 100 105 116 138 80 347 323 306 305 301 296 296 324 322 310 314 318 316
201 200 192 178 174 192 190 122 79 74 32 24 1 58 48 45 76 67 53 49 61 61 69 73 64 76 86 89 95 95 97 106 139 98 358 338 306 302 305 307 314 315 309 316 310 309 312